Find Weili Kongjian 01-04

NORAD ID: 62579 Int'l Des: 2025-007 Owner: CENTI Country: CN Constellation: future-navigation operational
LEOCIRCULAR

实时位置

正在加载3D地球...

关于 Weili Kongjian 01-04

正在加载描述...

即将过境

Passes for default location (London). Set your location on the main map for personalized predictions.

高度历史

Loading altitude history...

两行轨道根数

1 62579U 25007E 26104.84649703 -.00000051 00000-0 84792-4 0 9998
2 62579 54.9874 152.9326 0010066 337.9752 22.0771 13.80593127 65981
Epoch: Apr 14, 2026 • Age: 5 hours

当前状态

高度 955.8 km
速度 7.38 km/s
星下点 6.27°N, 70.16°W
发射日期 Jan 13, 2025
运行时间 1.2 years
类型 other

技术详情

分类 Payload
质量 140.00 kg
干质量 140.00 kg
总质量 140.00 kg
长度 1.00 m
直径 0.50 m
跨度 2.00 m
形状 Box + 2 pan
制造商 DFHS
平台类型 WK01
阶段状态 In Orbit
所有者/国家 CENTI/CN

Most Searched